Location: Marsån
(66.4167°N, 22.2833°E)
Time: 10:15:16
(UTC+00:00)

Cosmos 1437 Rocket - Pass Details

Date: 24 February 2024
Orbit: 482 x 536 km, 81.2° (Epoch: 15 April)

Event Time Altitude Azimuth Distance (km) Brightness Sun altitude
Rises 16:39:22 0° 173° (S) 2,666 6.3 -8.2°
Reaches altitude 10° 16:41:38 10° 165° (SSE) 1,771 5.3 -8.4°
Maximum altitude 16:45:14 37° 98° (E) 832 3.2 -8.8°
Drops below altitude 10° 16:48:46 10° 31° (NNE) 1,749 5.1 -9.1°
Sets 16:50:59 0° 23° (NNE) 2,628 6.0 -9.4°
